Simultaneous Nadir Overpasses (SNOs) Predictions

Prediction of SNOs between METOP-C and LANDSAT-8 Satellite Orbit:

Table of predicted SNOs for the next 14.0 days since TLE Epoch: 10/9/2021
Index Date (METOP-C) Time (METOP-C) Lat,Lon (METOP-C) SZA (METOP-C ) Date (LANDSAT-8) Time (LANDSAT-8) Lat,Lon (LANDSAT-8) SZA (LANDSAT-8 ) Distance(km) Time Diff (sec)
1 10/09/2021 12:34:23 81.08, 30.63 89.82 10/09/2021 12:34:41 81.08, 30.72 89.84 1.64 18
2 10/09/2021 13:25:03 -81.10,-161.39 90.08 10/09/2021 13:24:07 -81.10,-161.38 90.11 0.52 56
3 10/12/2021 08:08:46 81.08, 97.07 90.90 10/12/2021 08:08:56 81.08, 97.11 90.91 0.82 10
4 10/12/2021 08:59:25 -81.12, -94.52 88.95 10/12/2021 08:58:21 -81.12, -94.60 88.99 1.52 64
5 10/15/2021 02:52:45 -80.85, -9.15 88.76 10/15/2021 02:53:59 -80.72, -8.77 88.80 15.28 74
6 10/15/2021 03:43:09 81.10, 163.86 92.01 10/15/2021 03:43:11 81.10, 163.82 92.01 0.83 2
7 10/15/2021 04:33:50 -81.11, -28.42 87.93 10/15/2021 04:32:37 -81.12, -28.24 87.94 3.22 73
8 10/17/2021 22:26:56 -81.06, 62.01 87.08 10/17/2021 22:28:02 -81.06, 62.05 87.05 0.68 66
9 10/17/2021 23:17:33 81.10,-129.74 93.05 10/17/2021 23:17:27 81.09,-129.89 93.03 2.83 6
10 10/20/2021 18:01:18 -81.08, 128.80 86.01 10/20/2021 18:02:16 -81.07, 128.67 86.00 2.23 58



Historial Predications of SNOs between METOP-C and LANDSAT-8
